This demonstration page uses our WeatherBlox Daily Observations layout. Learn more.

38.88101, -77.10428

Hourly Observations for November 28, 2016

Temp ( °F °C ) Dew Point ( °F °C ) Humidity (%) Winds ( mph kmh ) Pressure ( in mb ) Visibility ( mi km ) Precip ( " mm )
12:52 am 00:52 Mostly Cloudy 39 3.9 31 -0.6 73 73 Calm 30.21 1023 10 16.09344 0 0
1:52 am 01:52 Mostly Cloudy 38 3.3 31 -0.6 76 76 Calm 30.21 1023 10 16.09344 0 0
2:52 am 02:52 Mostly Cloudy 38 3.3 31 -0.6 76 76 Calm 30.21 1023 10 16.09344 0 0
3:52 am 03:52 Partly Cloudy 36 2.2 33 0.6 89 89 NNE 3 6 30.18 1022 10 16.09344 0 0
4:52 am 04:52 Partly Cloudy 36 2.2 31 -0.6 82 82 Calm 30.18 1022 10 16.09344 0 0
5:52 am 05:52 Partly Cloudy 38 3.3 33 0.6 83 83 Calm 30.18 1022 10 16.09344 0 0
6:52 am 06:52 Mostly Cloudy 38 3.3 33 0.6 83 83 Calm 30.21 1023 10 16.09344 0 0
7:52 am 07:52 Mostly Cloudy 38 3.3 34 1.1 86 86 Calm 30.21 1023 10 16.09344 0 0
8:52 am 08:52 Cloudy 42 5.6 35 1.7 76 76 S 10 17 30.21 1023 10 16.09344 0 0
9:52 am 09:52 Cloudy 44 6.7 35 1.7 71 71 S 10 17 30.21 1023 10 16.09344 0 0
10:52 am 10:52 Cloudy 47 8.3 33 0.6 59 59 S 10 17 30.18 1022 10 16.09344 0 0
11:52 am 11:52 Cloudy 49 9.4 35 1.7 59 59 S 7 11 30.18 1022 10 16.09344 0 0
12:52 pm 12:52 Cloudy 50 10 35 1.7 57 57 S 8 13 30.15 1021 10 16.09344 0 0
1:52 pm 13:52 Cloudy 53 11.7 34 1.1 48 48 S 12 19 30.12 1020 10 16.09344 0 0
2:52 pm 14:52 Cloudy 52 11.1 33 0.6 49 49 S 13 20 30.12 1020 10 16.09344 0 0
3:52 pm 15:52 Mostly Cloudy 52 11.1 34 1.1 50 50 SSE 8 13 30.09 1019 10 16.09344 0 0
4:52 pm 16:52 Mostly Cloudy 50 10 34 1.1 54 54 SSE 10 17 30.12 1020 10 16.09344 0 0
5:52 pm 17:52 Mostly Cloudy 49 9.4 33 0.6 55 55 SSE 8 13 30.09 1019 10 16.09344 0 0
6:52 pm 18:52 Mostly Cloudy 49 9.4 34 1.1 56 56 SSE 8 13 30.09 1019 10 16.09344 0 0
7:52 pm 19:52 Cloudy 50 10 35 1.7 57 57 S 10 17 30.09 1019 10 16.09344 0 0
8:52 pm 20:52 Mostly Cloudy 49 9.4 36 2.2 61 61 S 12 19 30.09 1019 10 16.09344 0 0
9:52 pm 21:52 Partly Cloudy 49 9.4 36 2.2 61 61 SSE 10 17 30.09 1019 10 16.09344 0 0
10:52 pm 22:52 Cloudy 49 9.4 37 2.8 64 64 SSE 9 15 30.09 1019 10 16.09344 0 0
11:52 pm 23:52 Cloudy 49 9.4 37 2.8 64 64 SSE 7 11 30.06 1018 10 16.09344 0 0

Powered by AerisWeather